Вернуться в каталог

COSMOS 1275 DEB

АктивенPO
NORAD 39960·DEBRIS·🇷🇺 Russia

Запущен Jun 4, 1981 с Plesetsk Cosmodrome

Loading…

Ближайшие Пролёты (ближайшие 24 часа)

TLE

СвежийSource: Space-Track

Эпоха: Sep 12, 2026, 08:01 UTC

1 39960U 81053NW  26255.33459165  .00000424  00000-0  56765-3 0  9992
2 39960  83.1420 116.7759 0237530 156.2920 204.9386 13.46899979583900

Отслеживайте COSMOS 1275 DEB в реальном времени с AllMySat

Download on the App Store